Location: Équennes
(49.7375°N, 1.9622°E)
Time: 01:48:06
(UTC+00:00)

Cosmos 407 Rocket - Pass Details

Date: 28 January 2023
Orbit: 742 x 786 km, 74.0° (Epoch: 30 March)

Event Time Altitude Azimuth Distance (km) Brightness Sun altitude
Rises 17:39:33 0° 167° (SSE) 3,198 6.8 -9.7°
Reaches altitude 10° 17:42:13 10° 156° (SSE) 2,272 5.9 -10.1°
Maximum altitude 17:46:27 27° 100° (E) 1,430 4.4 -10.8°
Enters shadow 17:50:20 12° 47° (NE) 2,159 5.3 -11.4°
